CW3224 Weather Reports


time (UTC)temp
C
wind
direction
speed
KPH
gust
KPH
rain 1hr
cm
rain 24hr
cm
rain mn
cm
humidity
%
barometer
mb
20260906063859 15 95 0.0 0.0 0.03 0.43 0.08 93 1012.7
20260906062900 15 95 0.0 0.0 0.03 0.43 0.08 93 1012.7
20260906061858 15 95 0.0 0.0 0.00 0.41 0.05 93 1012.7
20260906060856 15 95 0.0 0.0 0.00 0.41 0.05 93 1012.8
20260906055857 15 95 0.0 0.0 0.00 0.41 0.05 93 1012.8
20260906054857 15 96 0.0 0.0 0.03 0.41 0.05 93 1012.8
20260906053857 15 96 0.0 0.0 0.03 0.41 0.05 93 1012.8
20260906052856 15 301 0.0 0.0 0.03 0.41 0.05 93 1012.8
20260906051858 15 301 0.0 0.0 0.03 0.41 0.05 93 1012.8
20260906050855 15 301 0.0 0.0 0.03 0.41 0.05 93 1012.8
20260906050342 15 301 0.0 0.0 0.05 0.41 0.05 93 1012.9
20260906044854 15 301 0.0 0.0 0.03 0.38 0.03 93 1012.9
20260906044331 15 301 0.0 0.0 0.03 0.38 0.03 93 1012.9
20260906043331 15 301 0.0 0.0 0.03 0.38 0.03 93 1012.9
20260906041855 16 301 0.0 0.0 0.03 0.38 0.03 93 1012.9
20260906040844 16 301 0.0 0.0 0.03 0.38 0.03 93 1012.8
20260906035844 16 301 0.0 0.0 0.00 0.36 0.36 93 1012.8
20260906034845 16 301 0.0 0.0 0.00 0.36 0.36 92 1012.8
20260906033845 16 301 0.0 0.0 0.00 0.36 0.36 92 1012.6
20260906032844 16 301 0.0 0.0 0.00 0.36 0.36 93 1012.7
20260906032318 16 301 0.0 0.0 0.00 0.36 0.36 93 1012.7
20260906030843 16 96 0.0 0.0 0.00 0.36 0.36 93 1012.7
20260906025843 16 301 0.0 0.0 0.03 0.36 0.36 92 1012.6
20260906024842 16 301 0.0 0.0 0.03 0.36 0.36 92 1012.6
20260906024323 16 301 0.0 0.0 0.03 0.36 0.36 92 1012.7
20260906022843 16 301 0.0 0.0 0.05 0.36 0.36 92 1012.4
20260906021832 16 301 0.0 0.0 0.05 0.36 0.36 92 1012.4
20260906020832 16 301 0.0 0.0 0.05 0.36 0.36 92 1012.5
20260906015833 16 301 0.0 0.0 0.03 0.33 0.33 92 1012.4
20260906014831 16 301 0.0 0.0 0.03 0.33 0.33 92 1012.4
20260906013832 16 301 0.0 0.0 0.05 0.33 0.33 92 1012.8
20260906012832 16 301 0.0 1.6 0.03 0.30 0.30 92 1012.7
20260906011823 16 301 0.0 0.0 0.05 0.30 0.30 92 1012.7
20260906010823 16 96 0.0 0.0 0.05 0.30 0.30 92 1012.5
20260906005822 16 301 0.0 0.0 0.05 0.30 0.30 92 1012.3
20260906004822 16 301 0.0 0.0 0.05 0.30 0.30 92 1012.3
20260906003821 16 301 0.0 0.0 0.03 0.28 0.28 91 1012.3
20260906002820 16 301 0.0 0.0 0.03 0.28 0.28 91 1012.2
20260906001818 16 301 0.0 0.0 0.00 0.25 0.25 91 1012.2
20260906000818 17 301 0.0 0.0 0.00 0.25 0.25 91 1012.0
20260905235818 17 301 0.0 0.0 0.00 0.25 0.25 91 1012.0
20260905234817 17 301 0.0 0.0 0.00 0.25 0.25 91 1012.0
20260905233815 17 301 0.0 0.0 0.00 0.25 0.25 91 1011.8
20260905232813 17 301 0.0 0.0 0.00 0.25 0.25 91 1011.8
20260905231814 17 96 0.0 0.0 0.00 0.25 0.25 91 1011.8
20260905231251 17 301 0.0 0.0 0.00 0.25 0.25 91 1011.7
20260905225813 17 301 0.0 0.0 0.00 0.25 0.25 91 1011.4
20260905224809 17 301 0.0 0.0 0.00 0.25 0.25 90 1011.4
20260905223809 17 301 0.0 0.0 0.00 0.25 0.25 90 1011.3
20260905222809 17 301 0.0 0.0 0.05 0.25 0.25 90 1011.3
20260905221808 17 301 0.0 0.0 0.08 0.25 0.25 90 1011.3
20260905220805 17 301 0.0 0.0 0.10 0.25 0.25 89 1011.4
20260905215804 17 301 0.0 0.0 0.15 0.25 0.25 88 1011.1
20260905214802 17 301 0.0 0.0 0.18 0.25 0.25 88 1011.1
20260905213802 17 301 0.0 4.8 0.18 0.23 0.23 87 1011.0
20260905212755 18 301 0.0 4.8 0.15 0.20 0.20 86 1010.8
20260905211756 18 301 1.6 6.4 0.13 0.18 0.18 85 1010.8
20260905210755 19 301 1.6 8.0 0.10 0.15 0.15 83 1010.5
20260905205755 20 10 0.0 8.0 0.05 0.10 0.10 82 1010.2
20260905204756 20 54 0.0 0.0 0.03 0.08 0.08 81 1010.2
20260905203755 20 54 0.0 0.0 0.00 0.05 0.05 78 1010.0
20260905202756 20 123 0.0 4.8 0.00 0.05 0.05 79 1009.7
20260905201755 20 198 0.0 6.4 0.00 0.05 0.05 80 1009.7
20260905200755 20 90 0.0 1.6 0.00 0.05 0.05 81 1009.7
20260905195755 20 86 0.0 0.0 0.00 0.05 0.05 79 1009.7
20260905194755 20 86 0.0 4.8 0.00 0.05 0.05 79 1009.7
20260905194226 20 147 0.0 4.8 0.00 0.05 0.05 79 1009.7
20260905192750 20 170 1.6 6.4 0.00 0.05 0.05 79 1009.7
20260905192714 20 112 1.6 4.8 0.00 0.05 0.05 80 1009.7
20260905190748 20 119 3.2 12.9 0.00 0.05 0.05 79 1009.7
20260905190721 20 38 0.0 4.8 0.03 0.05 0.05 82 1009.7
20260905185225 20 55 0.0 1.6 0.05 0.05 0.05 82 1009.7
20260905183743 20 85 1.6 8.0 0.05 0.05 0.05 82 1009.8
20260905182743 20 152 0.0 0.0 0.05 0.05 0.05 84 1009.9
20260905181743 21 133 0.0 0.0 0.05 0.05 0.05 81 1009.9
20260905180743 21 133 0.0 0.0 0.05 0.05 0.05 78 1009.8
20260905175742 21 133 0.0 0.0 0.03 0.03 0.03 74 1009.7
20260905174744 21 133 0.0 3.2 0.00 0.00 0.00 72 1009.7
20260905173743 21 47 0.0 3.2 0.00 0.00 0.00 73 1009.7
20260905172743 22 44 0.0 1.6 0.00 0.00 0.00 73 1009.5
20260905171744 22 12 0.0 4.8 0.00 0.00 0.00 72 1009.5
20260905170734 22 355 0.0 0.0 0.00 0.00 0.00 77 1009.6
20260905165734 21 43 0.0 0.0 0.00 0.00 0.00 76 1009.7
20260905164733 21 39 0.0 0.0 0.00 0.00 0.00 76 1009.7
20260905163733 21 90 0.0 0.0 0.00 0.00 0.00 75 1009.6
20260905162733 21 90 0.0 0.0 0.00 0.00 0.00 76 1009.7
20260905161735 21 0 0.0 0.0 0.00 0.00 0.00 76 1009.7
20260905160724 22 40 0.0 8.0 0.00 0.00 0.00 74 1009.7
20260905155725 22 12 0.0 6.4 0.00 0.00 0.00 76 1009.7
20260905155207 21 63 0.0 6.4 0.00 0.00 0.00 78 1009.7
20260905154209 21 16 0.0 4.8 0.00 0.00 0.00 77 1009.7
20260905152725 21 231 0.0 0.0 0.00 0.00 0.00 79 1009.7
20260905151724 20 358 0.0 4.8 0.00 0.00 0.00 82 1009.7
20260905150713 20 6 0.0 6.4 0.00 0.00 0.00 81 1009.7
20260905145714 20 356 0.0 4.8 0.00 0.00 0.00 83 1009.8
20260905144712 19 359 0.0 3.2 0.00 0.00 0.00 82 1009.8
20260905143712 19 44 0.0 0.0 0.00 0.00 0.00 83 1009.8
20260905142713 19 52 0.0 0.0 0.00 0.00 0.00 84 1009.9
20260905141711 19 5 0.0 1.6 0.00 0.00 0.00 85 1009.9
20260905140712 18 7 0.0 0.0 0.00 0.00 0.00 87 1010.0
20260905135711 18 358 0.0 3.2 0.00 0.00 0.00 89 1009.8
20260905134711 18 95 0.0 0.0 0.00 0.00 0.00 91 1009.8
20260905133710 17 95 0.0 0.0 0.00 0.00 0.00 92 1009.7
20260905132712 17 301 0.0 0.0 0.00 0.00 0.00 92 1009.7
20260905131709 17 301 0.0 0.0 0.00 0.00 0.00 93 1009.7
20260905130708 17 301 0.0 0.0 0.00 0.00 0.00 93 1009.3
20260905125708 17 301 0.0 0.0 0.00 0.00 0.00 94 1009.3
20260905124709 16 301 0.0 0.0 0.00 0.00 0.00 94 1009.3
20260905123709 16 301 0.0 0.0 0.00 0.00 0.00 94 1009.1
20260905122710 16 127 0.0 0.0 0.00 0.00 0.00 94 1009.1
20260905121706 16 301 0.0 0.0 0.00 0.00 0.00 94 1009.1
20260905120708 15 301 0.0 0.0 0.00 0.00 0.00 94 1009.0
20260905115708 15 301 0.0 0.0 0.00 0.00 0.00 93 1008.7
20260905115140 14 127 0.0 0.0 0.00 0.00 0.00 93 1008.7
20260905114147 14 127 0.0 0.0 0.00 0.00 0.00 92 1008.7
20260905113146 13 127 0.0 0.0 0.00 0.00 0.00 92 1008.7
20260905111656 13 127 0.0 0.0 0.00 0.00 0.00 92 1008.7
20260905110657 13 127 0.0 0.0 0.00 0.00 0.00 92 1008.5
20260905105656 13 127 0.0 0.0 0.00 0.00 0.00 92 1008.6
20260905104657 13 127 0.0 0.0 0.00 0.00 0.00 92 1008.6
20260905104607 13 127 0.0 0.0 0.00 0.00 0.00 92 1008.5
20260905102651 13 127 0.0 0.0 0.00 0.00 0.00 92 1008.6
20260905101650 13 127 0.0 0.0 0.00 0.00 0.00 91 1008.6
20260905100650 13 127 0.0 0.0 0.00 0.00 0.00 91 1008.5
20260905100124 13 127 0.0 0.0 0.00 0.00 0.00 91 1008.2
20260905094647 13 127 0.0 0.0 0.00 0.00 0.00 91 1008.2
20260905093646 13 127 0.0 0.0 0.00 0.00 0.00 91 1008.2
20260905092647 13 127 0.0 0.0 0.00 0.00 0.00 91 1008.1
20260905091646 13 127 0.0 0.0 0.00 0.00 0.00 91 1008.1
20260905090647 14 127 0.0 0.0 0.00 0.00 0.00 91 1008.1
20260905085646 14 127 0.0 0.0 0.00 0.00 0.00 91 1008.1
20260905084646 14 127 0.0 0.0 0.00 0.00 0.00 91 1008.1
20260905084041 14 127 0.0 0.0 0.00 0.00 0.00 91 1008.0
20260905083716 14 127 0.0 0.0 0.00 0.00 0.00 91 1008.0
20260905081647 14 127 0.0 0.0 0.00 0.00 0.00 91 1008.0
20260905080644 14 127 0.0 0.0 0.00 0.00 0.00 91 1008.1
20260905075644 14 127 0.0 0.0 0.00 0.00 0.00 91 1008.1
20260905074645 14 127 0.0 0.0 0.00 0.00 0.00 91 1008.1
20260905073642 15 127 0.0 0.0 0.00 0.00 0.00 90 1008.1
20260905072640 15 127 0.0 0.0 0.00 0.00 0.00 90 1008.1
20260905071640 15 127 0.0 0.0 0.00 0.00 0.00 90 1008.1
20260905070643 15 127 0.0 0.0 0.00 0.00 0.00 90 1008.2
20260905065639 15 127 0.0 0.0 0.00 0.00 0.00 90 1008.2